CFG2LM EDDK-LOWW

Flight info

Callsign CFG2LM
Flight time N/A
Altitude 35000
Route KUMIK2Q KUMIK L603 TESGA DCT ESATI DCT BOREP DCT ENITA DCT ETVIS DCT BUDEX BUDEX2W
Aircraft A321/M-V/N

Departure

Time 2026-04-22 08:22
Airport Cologne Bonn Airport (EDDK)

Arrival

Time N/A
Airport Vienna International Airport (LOWW)
Time Latitude Longitude Altitude Speed Heading
2026-04-22 08:11 50.87909 7.12509 230 ft 0 kts 290°
2026-04-22 08:17 50.87908 7.12515 231 ft 2 kts 290°
2026-04-22 08:17 50.87901 7.12542 230 ft 3 kts 299°
2026-04-22 08:18 50.87890 7.12569 233 ft 3 kts 314°
2026-04-22 08:18 50.87875 7.12588 230 ft 3 kts 339°
2026-04-22 08:18 50.87859 7.12594 234 ft 2 kts 13°
2026-04-22 08:18 50.87855 7.12593 233 ft 0 kts 17°
2026-04-22 08:20 50.87873 7.12602 234 ft 7 kts 17°
2026-04-22 08:20 50.87924 7.12630 230 ft 8 kts 27°
2026-04-22 08:20 50.87974 7.12697 232 ft 15 kts 49°
2026-04-22 08:21 50.88006 7.12860 237 ft 15 kts 91°
2026-04-22 08:21 50.87981 7.13002 240 ft 12 kts 125°
2026-04-22 08:21 50.87920 7.13094 241 ft 16 kts 137°
2026-04-22 08:21 50.87683 7.13445 246 ft 82 kts 138°
2026-04-22 08:22 50.87108 7.14273 259 ft 138 kts 137°
2026-04-22 08:22 50.86345 7.15374 648 ft 147 kts 137°
2026-04-22 08:22 50.85591 7.16455 1478 ft 147 kts 139°
2026-04-22 08:22 50.84761 7.17593 2026 ft 163 kts 139°
2026-04-22 08:23 50.83886 7.18879 2328 ft 181 kts 139°
2026-04-22 08:23 50.83242 7.19781 2511 ft 193 kts 140°
2026-04-22 08:23 50.82205 7.21291 2774 ft 212 kts 126°
2026-04-22 08:23 50.81561 7.23424 3328 ft 218 kts 107°
2026-04-22 08:24 50.81293 7.25801 3929 ft 226 kts 97°
2026-04-22 08:24 50.81079 7.28321 4462 ft 238 kts 97°
2026-04-22 08:24 50.80841 7.31085 4938 ft 252 kts 97°
2026-04-22 08:24 50.80607 7.33807 5234 ft 256 kts 97°
2026-04-22 08:25 50.80464 7.36595 6256 ft 254 kts 86°
2026-04-22 08:25 50.80590 7.39378 7211 ft 256 kts 85°
2026-04-22 08:25 50.80725 7.42192 8154 ft 258 kts 85°
2026-04-22 08:25 50.80867 7.45041 9049 ft 261 kts 85°
2026-04-22 08:26 50.81009 7.47921 9917 ft 265 kts 85°
2026-04-22 08:26 50.81150 7.50852 10627 ft 274 kts 85°
2026-04-22 08:26 50.81295 7.53982 10872 ft 297 kts 85°
2026-04-22 08:26 50.81452 7.57368 11065 ft 320 kts 85°
2026-04-22 08:27 50.81621 7.61010 11408 ft 336 kts 85°
2026-04-22 08:27 50.81791 7.64700 12058 ft 342 kts 85°
2026-04-22 08:27 50.81962 7.68471 12809 ft 346 kts 85°
2026-04-22 08:27 50.82133 7.72287 13558 ft 350 kts 85°
2026-04-22 08:28 50.82305 7.76146 14221 ft 355 kts 85°
2026-04-22 08:28 50.82479 7.80027 14686 ft 356 kts 85°
2026-04-22 08:28 50.82659 7.84007 15342 ft 359 kts 85°
2026-04-22 08:28 50.82833 7.87964 15996 ft 362 kts 84°
2026-04-22 08:29 50.83004 7.91954 16633 ft 366 kts 85°
2026-04-22 08:29 50.83175 7.95987 17265 ft 369 kts 84°
2026-04-22 08:29 50.83347 8.00048 17889 ft 372 kts 85°
2026-04-22 08:29 50.83287 8.04161 18489 ft 377 kts 95°
2026-04-22 08:30 50.82722 8.08184 19026 ft 383 kts 105°
2026-04-22 08:30 50.81637 8.12068 19547 ft 390 kts 117°
2026-04-22 08:30 50.80149 8.15692 20079 ft 395 kts 120°
2026-04-22 08:30 50.78614 8.19315 20615 ft 398 kts 120°
2026-04-22 08:31 50.77070 8.22960 21146 ft 401 kts 120°
2026-04-22 08:31 50.75512 8.26637 21665 ft 404 kts 120°
2026-04-22 08:31 50.72357 8.34076 22697 ft 411 kts 120°
2026-04-22 08:32 50.70664 8.37739 23187 ft 417 kts 127°
2026-04-22 08:32 50.68588 8.40980 23681 ft 425 kts 137°
2026-04-22 08:32 50.66146 8.43665 24116 ft 432 kts 147°
2026-04-22 08:32 50.63483 8.45921 24523 ft 436 kts 149°
2026-04-22 08:33 50.60764 8.48199 24944 ft 438 kts 149°
2026-04-22 08:33 50.58165 8.50875 25352 ft 436 kts 136°
2026-04-22 08:33 50.56204 8.54324 25727 ft 432 kts 121°
2026-04-22 08:33 50.54890 8.58535 26116 ft 429 kts 105°
2026-04-22 08:34 50.54034 8.63029 26524 ft 431 kts 104°
2026-04-22 08:34 50.53179 8.67590 26932 ft 433 kts 104°
2026-04-22 08:34 50.52329 8.72107 27317 ft 436 kts 104°
2026-04-22 08:34 50.51460 8.76688 27710 ft 438 kts 104°
2026-04-22 08:35 50.50582 8.81275 28090 ft 440 kts 104°
2026-04-22 08:35 50.49688 8.85895 28469 ft 443 kts 104°
2026-04-22 08:35 50.48789 8.90525 28835 ft 445 kts 104°
2026-04-22 08:35 50.47885 8.95175 29295 ft 444 kts 104°
2026-04-22 08:36 50.46987 8.99805 29808 ft 443 kts 104°
2026-04-22 08:36 50.46080 9.04489 30325 ft 442 kts 104°
2026-04-22 08:36 50.45198 9.09031 30751 ft 441 kts 104°
2026-04-22 08:36 50.44305 9.13617 31142 ft 441 kts 104°
2026-04-22 08:37 50.43405 9.18234 31504 ft 442 kts 104°
2026-04-22 08:37 50.42504 9.22838 31863 ft 442 kts 105°
2026-04-22 08:37 50.41597 9.27450 32238 ft 443 kts 105°
2026-04-22 08:37 50.40688 9.32061 32611 ft 443 kts 105°
2026-04-22 08:38 50.39775 9.36684 32980 ft 444 kts 104°
2026-04-22 08:38 50.38862 9.41313 33360 ft 445 kts 105°
2026-04-22 08:38 50.37945 9.45941 33725 ft 445 kts 105°
2026-04-22 08:38 50.37024 9.50565 34089 ft 445 kts 105°
2026-04-22 08:39 50.36096 9.55202 34437 ft 446 kts 105°
2026-04-22 08:39 50.35167 9.59836 34707 ft 447 kts 105°
2026-04-22 08:39 50.34239 9.64475 34997 ft 447 kts 105°
2026-04-22 08:39 50.33307 9.69132 35256 ft 448 kts 105°
2026-04-22 08:40 50.32372 9.73787 35343 ft 448 kts 105°
2026-04-22 08:40 50.30501 9.83048 35354 ft 446 kts 105°
2026-04-22 08:41 50.28626 9.92287 35355 ft 446 kts 105°
2026-04-22 08:41 50.26746 10.01515 35357 ft 445 kts 105°
2026-04-22 08:42 50.24857 10.10741 35355 ft 445 kts 105°
2026-04-22 08:42 50.22963 10.19950 35353 ft 445 kts 105°
2026-04-22 08:43 50.21063 10.29150 35356 ft 445 kts 105°
2026-04-22 08:43 50.19155 10.38336 35361 ft 445 kts 105°
2026-04-22 08:44 50.17240 10.47520 35346 ft 445 kts 105°
2026-04-22 08:44 50.15321 10.56703 35348 ft 445 kts 105°
2026-04-22 08:45 50.13386 10.65862 35351 ft 445 kts 105°
2026-04-22 08:45 50.11448 10.75018 35350 ft 445 kts 105°
2026-04-22 08:46 50.09511 10.84167 35349 ft 445 kts 105°
2026-04-22 08:46 50.07564 10.93309 35334 ft 445 kts 105°